Location: Unspecified
(42.3650°N, 71.1030°W)
Time: 15:57:04
(UTC+00:00)

Transit 2A - Pass Details

Date: 25 June 2024
Orbit: 591 x 960 km, 66.7° (Epoch: 16 July)

Event Time Altitude Azimuth Distance (km) Brightness Sun altitude
Rises 02:09:11 0° 337° (NNW) 3,500 11.0 -14.8°
Reaches altitude 10° 02:12:28 10° 355° (N) 2,612 9.7 -15.2°
Maximum altitude 02:16:43 19° 39° (NE) 2,086 8.4 -15.7°
Drops below altitude 10° 02:21:03 10° 83° (E) 2,687 8.5 -16.1°
Enters shadow 02:22:34 - 92° (E) 3,084 8.8 -16.3°
